Weather History for Truckee-Tahoe, CA

Change the Weather History Date:

Monday, December 16, 2013

  Actual Average Record
Temperature  
Mean Temperature 28 °F -  
Max Temperature 48 °F 40 °F 56 °F (1979)
Min Temperature 8 °F 15 °F -7 °F (1965)
Degree Days  
Heating Degree Days 37    
Moisture  
Dew Point 19 °F    
Average Humidity 84    
Maximum Humidity 100    
Minimum Humidity 43    
Precipitation  
Precipitation 0.00 in - - ()
Sea Level Pressure  
Sea Level Pressure 30.45 in    
Wind  
Wind Speed 0 mph (North)    
Max Wind Speed 0 mph    
Max Gust Speed -    
Visibility 7 miles    
Events Fog    
Averages and records for this station are not official NWS values.
T = Trace of Precipitation, MM = Missing Value Source: NWS Daily Summary

Daily Weather History Graph

Daily Weather History Graph

Search for Another Location

Airport:

Trip Planner

Search our weather history database for the weather conditions in past years. The results will help you decide how hot, cold, wet, or windy it might be!

Date:

Astronomy

Dec. 16, 2013 Rise Set
Actual Time 7:14 AM PST 4:38 PM PST
Civil Twilight 6:43 AM PST 5:08 PM PST
Nautical Twilight 6:10 AM PST 5:42 PM PST
Astronomical Twilight 5:37 AM PST 6:15 PM PST
Moon 4:32 PM PST (12/16) 6:27 AM PST (12/16)
Length of Visible Light 10h 24m
Length of Day
9h 24m
Full, 100% of the Moon is Illuminated
Dec 16
Full
Dec 17
Full
Dec 25
Last Quarter
Jan 1
New
Jan 7
First Quarter

Hourly Weather History & Observations

Time (PST) Temp. Dew Point Humidity Pressure Visibility Wind Dir Wind Speed Gust Speed Precip Events Conditions
2:15 AM 15.8 °F 14.0 °F 93% 30.50 in 0.2 mi Calm Calm - N/A Fog Light Freezing Fog
2:35 AM 14.0 °F 10.4 °F 86% 30.50 in 0.2 mi Calm Calm - N/A Fog Light Freezing Fog
2:55 AM 14.0 °F 10.4 °F 86% 30.49 in 0.5 mi Calm Calm - N/A Fog Light Freezing Fog
3:15 AM 15.8 °F 14.0 °F 93% 30.49 in 0.2 mi Calm Calm - N/A Fog Light Freezing Fog
3:35 AM 15.8 °F 14.0 °F 93% 30.48 in 0.5 mi Calm Calm - N/A Fog Light Freezing Fog
3:55 AM 14.0 °F 10.4 °F 86% 30.48 in 0.2 mi Calm Calm - N/A Fog Light Freezing Fog
4:15 AM 15.8 °F 14.0 °F 93% 30.48 in 0.2 mi Calm Calm - N/A Fog Light Freezing Fog
4:35 AM 14.0 °F 10.4 °F 86% 30.48 in 0.2 mi Calm Calm - N/A Fog Light Freezing Fog
4:55 AM 10.4 °F 8.6 °F 92% 30.47 in 0.2 mi Calm Calm - N/A Fog Light Freezing Fog
5:15 AM 14.0 °F 10.4 °F 86% 30.47 in 0.5 mi Calm Calm - N/A Fog Light Freezing Fog
5:35 AM 8.6 °F 6.8 °F 92% 30.47 in 0.2 mi Calm Calm - N/A Fog Light Freezing Fog
6:55 AM 10.4 °F 6.8 °F 85% 30.48 in 0.2 mi Calm Calm - N/A Fog Light Freezing Fog
7:45 AM 10.4 °F 6.8 °F 85% 30.49 in 0.2 mi Calm Calm - N/A Fog Light Freezing Fog
8:45 AM 15.8 °F 14.0 °F 93% 30.51 in 10.0 mi Calm Calm - N/A   Scattered Clouds
9:45 AM 23.0 °F 21.2 °F 93% 30.51 in 10.0 mi Calm Calm - N/A   Scattered Clouds
10:45 AM 26.6 °F 26.6 °F 100% 30.49 in 10.0 mi Calm Calm - N/A   Scattered Clouds
12:50 PM 41.0 °F 26.6 °F 57% 30.43 in 10.0 mi Calm Calm - N/A   Scattered Clouds
1:55 PM 46.4 °F 26.6 °F 46% 30.40 in 10.0 mi Calm Calm - N/A   Partly Cloudy
2:50 PM 48.2 °F 26.6 °F 43% 30.38 in 10.0 mi Calm Calm - N/A   Clear
3:45 PM 44.6 °F 28.4 °F 53% 30.38 in 10.0 mi Calm Calm - N/A   Clear
4:55 PM 32.0 °F 26.6 °F 80% 30.39 in 10.0 mi Calm Calm - N/A   Clear
5:15 PM 33.8 °F 26.6 °F 75% 30.39 in 10.0 mi Calm Calm - N/A   Clear
5:35 PM 32.0 °F 24.8 °F 75% 30.39 in 10.0 mi Calm Calm - N/A   Clear
5:55 PM 32.0 °F 24.8 °F 75% 30.40 in 10.0 mi Calm Calm - N/A   Clear
6:15 PM 32.0 °F 23.0 °F 69% 30.40 in 10.0 mi Calm Calm - N/A   Clear
6:35 PM 28.4 °F 23.0 °F 80% 30.41 in 10.0 mi Calm Calm - N/A   Clear
6:55 PM 28.4 °F 23.0 °F 80% 30.41 in 10.0 mi Calm Calm - N/A   Clear
7:15 PM 28.4 °F 23.0 °F 80% 30.42 in 10.0 mi Calm Calm - N/A   Clear
7:35 PM 26.6 °F 23.0 °F 86% 30.42 in 10.0 mi Calm Calm - N/A   Clear
7:55 PM 26.6 °F 23.0 °F 86% 30.43 in 10.0 mi Calm Calm - N/A   Clear
8:15 PM 26.6 °F 21.2 °F 80% 30.43 in 10.0 mi Calm Calm - N/A   Clear
8:35 PM 24.8 °F 21.2 °F 86% 30.44 in 10.0 mi Calm Calm - N/A   Clear
8:55 PM 23.0 °F 21.2 °F 93% 30.44 in 10.0 mi Calm Calm - N/A   Clear
9:15 PM 23.0 °F 23.0 °F 100% 30.44 in 10.0 mi Calm Calm - N/A   Clear
10:15 PM 21.2 °F 21.2 °F 100% 30.45 in 10.0 mi Calm Calm - N/A   Clear
10:35 PM 23.0 °F 21.2 °F 93% 30.45 in 10.0 mi Calm Calm - N/A   Clear
10:55 PM 23.0 °F 21.2 °F 93% 30.45 in 10.0 mi Calm Calm - N/A   Clear
11:15 PM 19.4 °F 19.4 °F 100% 30.45 in 10.0 mi Calm Calm - N/A   Clear
11:35 PM 19.4 °F 17.6 °F 93% 30.45 in 1.8 mi Calm Calm - N/A   Mist
11:55 PM 21.2 °F 19.4 °F 93% 30.44 in 10.0 mi Calm Calm - N/A   Clear